ONEWEB-0195 (48240 NORAD) Tracking and Keplerian Element Data

This shows tracking and keplerian element data for the satellite.

Feedback or suggestion? Click here.




ElementValue
Catalog48240
NameONEWEB-0195
Epoch Orbit1440
Epoch Day215.25002315
Epoch Year2021
RAAN283.367
Inclination87.8316
Eccentricity0.0005701
Argument of Perigee297.06
Mean Anonmoly120.3219
Mean Motion13.43370273
Decay Rate1.4E-07
L11 48240U 21031AG 21215.25002315 .00000014 00000-0 00000+0 0 9998
L22 48240 87.8316 283.3670 0005701 297.0600 120.3219 13.43370273 14409

Live tracking and technical data element details for ONEWEB-0195 (NORAD 48240). ONEWEB-0195 can be tracked NOW for your location showing map with azimuth and elevation plus other details from your city location.

Track the satellite on the map from your city or location and see movement details for azimuth, elevation, latitude, longitude, range, height, and movement on the map or in text.







IsCatalogInMostPopularTable: catalog: 48240, numindb: 32
Update: records affected: 1



GetName: 48240 ONEWEB-0195

Hit Count: updated at: Tue, 03 Aug 2021 23:39:02 GMT